This is the latest recevied weather packets stored in our database for station/object KE4EST. If no packets are shown the sender has not sent any weather packets the latest 10 day(s).
| Time | Temp. | Humidity | Pressure | Rain* | Wind** | Luminosity | Snow |
|---|---|---|---|---|---|---|---|
| 1777834819 | 19.44° C | 31% | 1019.1 hPa | 0 mm | - | 669 W/m² | - |
| 1777834515 | 18.89° C | 34% | 1019.2 hPa | 0 mm | - | 676 W/m² | - |
| 1777834210 | 18.89° C | 35% | 1019.3 hPa | 0 mm | - | 679 W/m² | - |
| 1777833906 | 18.89° C | 33% | 1019.4 hPa | 0 mm | - | 683 W/m² | - |
| 1777833603 | 18.89° C | 34% | 1019.3 hPa | 0 mm | - | 688 W/m² | - |
| 1777833299 | 18.33° C | 32% | 1019.5 hPa | 0 mm | - | 695 W/m² | - |
| 1777832996 | 18.33° C | 36% | 1019.2 hPa | 0 mm | - | 698 W/m² | - |
| 1777832690 | 18.89° C | 37% | 1019.3 hPa | 0 mm | - | 700 W/m² | - |
| 1777832387 | 18.89° C | 35% | 1019.6 hPa | 0 mm | - | 705 W/m² | - |
| 1777832084 | 18.33° C | 35% | 1019.4 hPa | 0 mm | - | 708 W/m² | - |
| 1777831780 | 18.89° C | 31% | 1019.4 hPa | 0 mm | - | 710 W/m² | - |
| 1777831478 | 18.89° C | 34% | 1019.5 hPa | 0 mm | - | 710 W/m² | - |
| 1777831175 | 18.33° C | 34% | 1019.5 hPa | 0 mm | - | 714 W/m² | - |
| 1777830873 | 18.33° C | 34% | 1019.7 hPa | 0 mm | - | 714 W/m² | - |
| 1777830568 | 18.33° C | 35% | 1019.6 hPa | 0 mm | - | 713 W/m² | - |
| 1777830267 | 17.22° C | 38% | 1019.8 hPa | 0 mm | - | 715 W/m² | - |
| 1777829967 | 17.22° C | 38% | 1019.8 hPa | 0 mm | - | 714 W/m² | - |
| 1777829663 | 17.22° C | 38% | 1020 hPa | 0 mm | - | 712 W/m² | - |
| 1777829360 | 17.22° C | 39% | 1020 hPa | 0 mm | - | 699 W/m² | - |
| 1777829057 | 16.67° C | 38% | 1019.8 hPa | 0 mm | - | 712 W/m² | - |
| 1777828753 | 16.67° C | 42% | 1019.7 hPa | 0 mm | - | 698 W/m² | - |
| 1777828450 | 17.22° C | 38% | 1020.1 hPa | 0 mm | - | 591 W/m² | - |
| 1777828148 | 16.67° C | 43% | 1020 hPa | 0 mm | - | 129 W/m² | - |
| 1777827844 | 16.67° C | 42% | 1020.1 hPa | 0 mm | - | 655 W/m² | - |
| 1777827541 | 16.67° C | 41% | 1020.1 hPa | 0 mm | - | 655 W/m² | - |
* Rain latest hour (hover to see other rain measurements)
** Current wind speed in m/s (hover to see current wind gust speed)